Weather History for KDNS - June, 2013

Change the Weather History Date:

Friday, June 21, 2013

  Actual Average Record
Temperature  
Mean Temperature 84 °F -  
Max Temperature 91 °F 79 °F - (-1)
Min Temperature 77 °F 59 °F - (-1)
Cooling Degree Days 19    
Growing Degree Days 34 (Base 50)    
Moisture  
Dew Point 71 °F    
Average Humidity 69    
Maximum Humidity 83    
Minimum Humidity 46    
Precipitation  
Precipitation 0.00 in - - ()
Sea Level Pressure  
Sea Level Pressure 29.85 in    
Wind  
Wind Speed 16 mph (South)    
Max Wind Speed 25 mph    
Max Gust Speed 38 mph    
Visibility 10 miles    
Events Rain    
Averages and records for this station are not official NWS values.
T = Trace of Precipitation, MM = Missing Value Source: NWS Daily Summary

Daily Weather History Graph

Daily Weather History Graph

Search for Another Location

Airport or City:

Trip Planner

Search our weather history database for the weather conditions in past years. The results will help you decide how hot, cold, wet, or windy it might be!

Date:

Astronomy

Jun. 21, 2013 Rise Set
Actual Time 5:46 AM CDT 9:00 PM CDT
Civil Twilight 5:11 AM CDT 9:35 PM CDT
Nautical Twilight 4:27 AM CDT 10:19 PM CDT
Astronomical Twilight 3:33 AM CDT 11:13 PM CDT
Moon 7:11 PM CDT (6/21) 4:03 AM CDT (6/21)
Length of Visible Light 16h 23m
Length of Day
15h 14m
Waxing Gibbous, 95% of the Moon is Illuminated
Jun 21
Waxing Gibbous
Jun 23
Full
Jun 29
Last Quarter
Jul 8
New
Jul 15
First Quarter

Hourly Weather History & Observations

Time (CDT) Temp. Heat Index Dew Point Humidity Pressure Visibility Wind Dir Wind Speed Gust Speed Precip Events Conditions
12:15 AM 78.8 °F - 69.8 °F 74% 29.87 in 10.0 mi SSE 17.3 mph 25.3 mph N/A   Scattered Clouds
12:35 AM 78.8 °F - 71.6 °F 78% 29.87 in 10.0 mi South 19.6 mph 25.3 mph N/A   Scattered Clouds
12:55 AM 78.8 °F - 71.6 °F 78% 29.86 in 10.0 mi South 21.9 mph 28.8 mph N/A   Scattered Clouds
1:15 AM 78.8 °F - 71.6 °F 78% 29.85 in 10.0 mi South 19.6 mph 31.1 mph N/A   Partly Cloudy
1:35 AM 78.8 °F - 71.6 °F 78% 29.85 in 10.0 mi South 20.7 mph - N/A   Clear
1:55 AM 78.8 °F - 71.6 °F 78% 29.84 in 10.0 mi South 17.3 mph 26.5 mph N/A   Clear
2:15 AM 78.8 °F - 71.6 °F 78% 29.84 in 10.0 mi South 16.1 mph 24.2 mph N/A   Clear
2:35 AM 78.8 °F - 71.6 °F 78% 29.83 in 10.0 mi South 15.0 mph 25.3 mph N/A   Partly Cloudy
2:55 AM 77.0 °F - 71.6 °F 83% 29.82 in 10.0 mi South 16.1 mph 21.9 mph N/A   Clear
3:15 AM 77.0 °F - 71.6 °F 83% 29.82 in 10.0 mi South 15.0 mph 25.3 mph N/A   Clear
3:35 AM 77.0 °F - 71.6 °F 83% 29.83 in 10.0 mi South 16.1 mph 24.2 mph N/A   Clear
3:55 AM 77.0 °F - 71.6 °F 83% 29.84 in 10.0 mi South 13.8 mph 21.9 mph N/A   Scattered Clouds
4:15 AM 77.0 °F - 71.6 °F 83% 29.85 in 10.0 mi South 12.7 mph 18.4 mph N/A   Mostly Cloudy
4:35 AM 77.0 °F - 71.6 °F 83% 29.85 in 10.0 mi South 10.4 mph - N/A   Mostly Cloudy
4:55 AM 77.0 °F - 71.6 °F 83% 29.85 in 10.0 mi South 11.5 mph 17.3 mph N/A   Scattered Clouds
5:15 AM 77.0 °F - 71.6 °F 83% 29.85 in 10.0 mi South 12.7 mph - N/A   Mostly Cloudy
5:35 AM 77.0 °F - 71.6 °F 83% 29.86 in 10.0 mi South 11.5 mph 18.4 mph N/A   Mostly Cloudy
5:55 AM 77.0 °F - 71.6 °F 83% 29.86 in 10.0 mi South 12.7 mph - N/A   Overcast
6:15 AM 77.0 °F - 71.6 °F 83% 29.86 in 10.0 mi South 11.5 mph 19.6 mph N/A   Mostly Cloudy
6:35 AM 77.0 °F - 71.6 °F 83% 29.86 in 9.0 mi South 16.1 mph 21.9 mph N/A   Clear
6:55 AM 77.0 °F - 71.6 °F 83% 29.85 in 9.0 mi South 13.8 mph 19.6 mph N/A   Clear
7:15 AM 77.0 °F - 71.6 °F 83% 29.85 in 10.0 mi South 13.8 mph 20.7 mph N/A   Clear
7:35 AM 77.0 °F - 71.6 °F 83% 29.85 in 9.0 mi South 13.8 mph 23.0 mph N/A   Clear
7:55 AM 77.0 °F - 71.6 °F 83% 29.86 in 10.0 mi South 12.7 mph 21.9 mph N/A   Clear
8:15 AM 78.8 °F - 71.6 °F 78% 29.86 in 9.0 mi South 16.1 mph - N/A   Clear
8:35 AM 78.8 °F - 71.6 °F 78% 29.87 in 9.0 mi South 11.5 mph 24.2 mph N/A   Clear
8:55 AM 78.8 °F - 71.6 °F 78% 29.86 in 9.0 mi South 16.1 mph 23.0 mph N/A   Clear
9:15 AM 80.6 °F 84.6 °F 71.6 °F 74% 29.86 in 9.0 mi South 17.3 mph 26.5 mph N/A   Clear
9:35 AM 80.6 °F 84.6 °F 71.6 °F 74% 29.87 in 9.0 mi South 11.5 mph 24.2 mph N/A   Clear
9:55 AM 82.4 °F 87.2 °F 71.6 °F 70% 29.87 in 9.0 mi South 16.1 mph 26.5 mph N/A   Clear
10:15 AM 82.4 °F 87.2 °F 71.6 °F 70% 29.88 in 9.0 mi South 12.7 mph 19.6 mph N/A   Clear
10:35 AM 84.2 °F 89.6 °F 71.6 °F 66% 29.89 in 9.0 mi SSE 11.5 mph - N/A   Clear
10:55 AM 84.2 °F 89.6 °F 71.6 °F 66% 29.90 in 9.0 mi South 11.5 mph - N/A   Partly Cloudy
11:15 AM 84.2 °F 89.6 °F 71.6 °F 66% 29.88 in 9.0 mi South 9.2 mph 18.4 mph N/A   Partly Cloudy
11:35 AM 86.0 °F 90.4 °F 69.8 °F 58% 29.90 in 9.0 mi SSW 11.5 mph 18.4 mph N/A   Partly Cloudy
11:55 AM 86.0 °F 90.4 °F 69.8 °F 58% 29.91 in 9.0 mi South 13.8 mph 19.6 mph N/A   Partly Cloudy
12:15 PM 84.2 °F 88.4 °F 69.8 °F 62% 29.93 in 9.0 mi SSW 10.4 mph 18.4 mph N/A   Mostly Cloudy
12:35 PM 80.6 °F 84.6 °F 71.6 °F 74% 29.85 in 7.0 mi East 16.1 mph - N/A Rain Light Rain
12:55 PM 82.4 °F 87.2 °F 71.6 °F 70% 29.90 in 9.0 mi SSE 12.7 mph - N/A   Clear
1:15 PM 82.4 °F 87.2 °F 71.6 °F 70% 29.85 in 9.0 mi SSE 15.0 mph 21.9 mph N/A   Clear
1:35 PM 86.0 °F 91.8 °F 71.6 °F 62% 29.87 in 9.0 mi South 17.3 mph 26.5 mph N/A   Clear
1:55 PM 87.8 °F 92.6 °F 69.8 °F 55% 29.85 in 9.0 mi South 20.7 mph 26.5 mph N/A   Clear
2:15 PM 87.8 °F 93.8 °F 71.6 °F 58% 29.85 in 9.0 mi South 20.7 mph 28.8 mph N/A   Clear
2:35 PM 87.8 °F 92.6 °F 69.8 °F 55% 29.84 in 9.0 mi SSE 20.7 mph 29.9 mph N/A   Clear
2:55 PM 87.8 °F 91.4 °F 68.0 °F 52% 29.83 in 10.0 mi South 21.9 mph 29.9 mph N/A   Clear
3:15 PM 89.6 °F 94.7 °F 69.8 °F 52% 29.82 in 10.0 mi SSE 19.6 mph 29.9 mph N/A   Clear
3:35 PM 87.8 °F 92.6 °F 69.8 °F 55% 29.82 in 10.0 mi SSE 21.9 mph 38.0 mph N/A   Clear
3:55 PM 87.8 °F 92.6 °F 69.8 °F 55% 29.81 in 10.0 mi SSE 21.9 mph 32.2 mph N/A   Clear
4:15 PM 89.6 °F 96.2 °F 71.6 °F 55% 29.82 in 9.0 mi SSE 25.3 mph 31.1 mph N/A   Clear
4:35 PM 91.4 °F 98.4 °F 71.6 °F 52% 29.82 in 10.0 mi South 19.6 mph 31.1 mph N/A   Clear
4:55 PM 91.4 °F 98.4 °F 71.6 °F 52% 29.81 in 10.0 mi South 23.0 mph 32.2 mph N/A   Clear
5:15 PM 91.4 °F 96.8 °F 69.8 °F 49% 29.80 in 10.0 mi South 16.1 mph 34.5 mph N/A   Clear
5:35 PM 89.6 °F 92.2 °F 66.2 °F 46% 29.80 in 10.0 mi South 18.4 mph 28.8 mph N/A   Clear
5:55 PM 89.6 °F 94.7 °F 69.8 °F 52% 29.80 in 10.0 mi South 17.3 mph 25.3 mph N/A   Clear
6:15 PM 89.6 °F 94.7 °F 69.8 °F 52% 29.81 in 10.0 mi South 19.6 mph - N/A   Clear
6:35 PM 87.8 °F 93.8 °F 71.6 °F 58% 29.81 in 10.0 mi South 12.7 mph 19.6 mph N/A   Clear
6:55 PM 87.8 °F 93.8 °F 71.6 °F 58% 29.82 in 9.0 mi South 15.0 mph 20.7 mph N/A   Clear
7:15 PM 87.8 °F 95.6 °F 73.4 °F 62% 29.82 in 9.0 mi South 18.4 mph - N/A   Clear
7:35 PM 87.8 °F 95.6 °F 73.4 °F 62% 29.82 in 10.0 mi SSE 17.3 mph - N/A   Clear
7:55 PM 87.8 °F 95.6 °F 73.4 °F 62% 29.83 in 9.0 mi South 15.0 mph 21.9 mph N/A   Clear
8:15 PM 86.0 °F 93.4 °F 73.4 °F 66% 29.83 in 9.0 mi SSE 12.7 mph 19.6 mph N/A   Clear
8:35 PM 86.0 °F 93.4 °F 73.4 °F 66% 29.84 in - SSE 11.5 mph 19.6 mph N/A   Clear
9:15 PM 84.2 °F 90.9 °F 73.4 °F 70% 29.84 in 9.0 mi SSE 10.4 mph - N/A   Clear
9:55 PM 84.2 °F 89.6 °F 71.6 °F 66% 29.84 in 10.0 mi SSE 12.7 mph - N/A   Clear
10:35 PM 84.2 °F 88.4 °F 69.8 °F 62% 29.84 in 10.0 mi South 17.3 mph 23.0 mph N/A   Clear
10:55 PM 82.4 °F 86.3 °F 69.8 °F 66% 29.83 in 10.0 mi South 18.4 mph 26.5 mph N/A   Clear
11:15 PM 82.4 °F 86.3 °F 69.8 °F 66% 29.83 in 10.0 mi South 17.3 mph 23.0 mph N/A   Clear
11:35 PM 82.4 °F 86.3 °F 69.8 °F 66% 29.82 in 10.0 mi South 17.3 mph 27.6 mph N/A   Clear
11:55 PM 80.6 °F 83.9 °F 69.8 °F 70% 29.83 in 10.0 mi South 16.1 mph 24.2 mph N/A   Clear